Home   Weather   Prince Albert   Past weeks

Flag for Canada Past Weather in Prince Albert, Saskatchewan, Canada — Yesterday and Last 2 Weeks

Now
50 °F

Drizzle. Fog.


Feels Like: 46 °F
Forecast: 49 / 60 °F
Wind: 10 mph from East

Location: Prince Albert

Current Time: Oct 1, 2016 at 9:38:34 AM

Latest Report: Oct 1, 2016 at 9:00 AM


Visibility: 2 mi

Pressure: 30.11 "Hg

Humidity: 100%

Dew Point: 50 °F

Location of Prince AlbertLocation

Past Weather in Prince Albert — Graph

°F

Prince Albert Temperature Yesterday

Maximum temperature yesterday: 66 °F (at 2:00 PM)
Minimum temperature yesterday: 46 °F (at 12:00 AM)
Average temperature yesterday: 55 °F

High & Low Weather Summary for the Past Weeks

 TemperatureHumidityPressure
High73 °F (Sep 16, 3:00 PM)100% (Sep 17, 5:00 AM)30.41 "Hg (Sep 17, 5:00 AM)
Low28 °F (Sep 22, 6:00 AM)27% (Sep 25, 4:00 PM)29.43 "Hg (Sep 18, 2:00 AM)
Average50 °F79%30.03 "Hg
* Reported Sep 16 8:00 AM — Oct 1 8:00 AM, Prince Albert, Weather by CustomWeather, © 2016

Note: Actual official high and low records may vary slightly from our data, if they occured in-between our weather recording intervals... More about our weather records

Advertising

Prince Albert Weather History for the Previous 24 Hours

Scroll right to see more
 ConditionsComfort  
Time TempWeatherWind HumidityBarometerVisibility
8:00 AM
Sat, Oct 1
50 °FFog.12 mph94%30.10 "Hg5 mi
7:00 AM50 °FLow clouds.12 mph94%30.11 "Hg10 mi
6:00 AM50 °FLow clouds.9 mph100%30.10 "Hg15 mi
5:00 AM50 °FLow clouds.9 mph100%30.09 "Hg15 mi
4:00 AM52 °FLow clouds.9 mph94%30.09 "Hg15 mi
3:00 AM52 °FLow clouds.8 mph94%30.09 "Hg15 mi
2:00 AM52 °FLow clouds.8 mph94%30.08 "Hg15 mi
1:00 AM52 °FLow clouds.9 mph94%30.07 "Hg15 mi
12:49 AM50 °FPassing clouds.6 mph100%30.07 "Hg15 mi
12:00 AM50 °FClear.7 mph94%30.05 "Hg15 mi
11:00 PM
Fri, Sep 30
52 °FPartly cloudy.6 mph94%30.04 "Hg15 mi
10:00 PM52 °FPassing clouds.6 mph94%30.03 "Hg15 mi
9:00 PM54 °FPassing clouds.3 mph88%30.02 "Hg15 mi
8:00 PM54 °FPassing clouds.3 mph82%30.01 "Hg50 mi
7:00 PM55 °FPassing clouds.5 mph77%30.01 "Hg15 mi
6:00 PM63 °FScattered clouds.5 mph64%30.01 "Hg15 mi
5:00 PM66 °FScattered clouds.5 mph60%30.00 "Hg15 mi
4:00 PM66 °FScattered clouds.7 mph60%29.99 "Hg15 mi
3:00 PM66 °FPassing clouds.8 mph56%30.00 "Hg15 mi
2:00 PM66 °FPassing clouds.9 mph60%30.00 "Hg15 mi
1:00 PM63 °FPassing clouds.12 mph64%30.01 "Hg15 mi
12:00 PM61 °FPassing clouds.7 mph68%30.04 "Hg15 mi
11:00 AM57 °FPassing clouds.7 mph72%30.06 "Hg15 mi
10:00 AM55 °FScattered clouds.5 mph77%30.08 "Hg15 mi
9:00 AM50 °FScattered clouds.9 mph94%30.07 "Hg15 mi
Weather by CustomWeather, © 2016

See weather overviewHow to use our weather pages